Regional Weather Roundup
Issued by NWS Charleston, SC

Current Version | Previous Version | Text Only | Print | Product List | Glossary Off
Versions: 1 2 3 4 5 6 7 8 9 10 11 12 13 14 15 16 17 18 19 20 21 22 23 24 25 26 27 28 29 30 31 32 33 34 35 36 37 38 39 40 41 42 43 44 45 46 47 48 49 50

000
ASUS42 KCHS 220912
RWRCHS

REGIONAL WEATHER ROUNDUP
NATIONAL WEATHER SERVICE CHARLESTON SC
500 AM EDT TUE AUG 22 2017

NOTE: "FAIR" INDICATES FEW OR NO CLOUDS BELOW 12,000 FEET WITH NO
SIGNIFICANT WEATHER AND/OR OBSTRUCTIONS TO VISIBILITY.

NOT ALL STATIONS ARE QUALITY CONTROLLED. USE DATA WITH CAUTION...
ESPECIALLY DEWPOINT OBSERVATIONS.

SCZ027-030-031-034>040-042>050-221000-
...SOUTHEAST SOUTH CAROLINA...

CITY           SKY/WX    TMP DP  RH WIND       PRES   REMARKS
N CHARLESTON   PTCLDY    75  75 100 NE3       30.09F
WATERFRONT PRK   N/A     80  78  94 VRB3      29.93F
JOHNS ISLAND   FAIR      77  77 100 CALM      30.09F
PINOPOLIS        N/A     77  75  94 CALM      30.03F
MONCKS CORNER    N/A     72  70  94 CALM      30.09F
SUMMERVILLE    NOT AVBL
BEAUFORT MCAS  LGT RAIN  76  76 100 CALM      30.09F
BEAUFORT ARPT  DRIZZLE   75  73  94 CALM      30.09F
HILTON HEAD IS CLOUDY    77  77 100 CALM      30.10F
WALTERBORO     CLOUDY    72  72 100 CALM      30.11S
ALLENDALE      NOT AVBL

...SOUTHERN MIDLANDS AND PEE DEE...

CITY           SKY/WX    TMP DP  RH WIND       PRES   REMARKS
GEORGETOWN     FAIR      72  72 100 CALM      30.11F
KINGSTREE      FOG       72  70  94 CALM      30.11S VSB 1/2
ORANGEBURG     PTCLDY    72  70  93 CALM      30.11F
BARNWELL       FAIR      72  72 100 CALM      30.11F
AIKEN          FAIR      70  70 100 CALM      30.16R
MANNING        FAIR      72  64  78 N3G28     30.11S
COLUMBIA       PTCLDY    74  70  87 CALM      30.11S
SUMTER         CLEAR     72  70  93 CALM      30.09S
FLORENCE       MOCLDY    74  74 100 CALM      30.12R
MYRTLE BEACH   NOT AVBL
N MYRTLE BEACH PTCLDY    76  76 100 CALM      30.10F

$$

GAZ063-065-086>088-099>101-113>116-118-119-134>141-150-221000-
...SOUTHEAST GEORGIA...

CITY           SKY/WX    TMP DP  RH WIND       PRES   REMARKS
SAVANNAH ARPT  PTCLDY    75  74  96 CALM      30.10F
HUNTER AAF     LGT RAIN  76  74  95 CALM      30.07F
FORT STEWART   CLEAR     74  72  95 CALM      30.08S
STATESBORO     CLEAR     74  74 100 CALM      30.10S
SYLVANIA         N/A     73  73 100 CALM      30.11S
CLAXTON        FAIR      74  74  99 CALM      30.10F FOG

...CSRA...CENTRAL AND FAR SOUTHEAST GEORGIA...

CITY           SKY/WX    TMP DP  RH WIND       PRES   REMARKS
THOMSON        CLEAR     71  70  96 CALM      30.16F
AUGUSTA-BUSH   MOCLDY    73  72  96 E3        30.09F FOG
AUGUSTA-DANIEL PTCLDY    75  72  90 CALM      30.12F FOG
SWAINSBORO     FAIR      73  73 100 CALM      30.11F
VIDALIA        CLEAR     73  73 100 CALM      30.11S
EASTMAN        FOG       73  73  99 CALM      30.12F VSB 3/4
HAZLEHURST     FAIR      75  73  93 CALM      30.09F
ALMA           CLEAR     73  71  93 CALM      30.09S
WAYCROSS       CLEAR     73  69  90 NE3       30.09F
JESUP          FAIR      75  72  88 CALM      30.10F
BAXLEY         FAIR      72  72 100 CALM      30.09F
BRUNSWICK        N/A     73  72  94 CALM      30.09F FOG
SAINT SIMONS   CLEAR     78  76  93 N3        30.08F

$$

SCZ027-028-034-036>038-045-046-048>050-GAZ119-141-221000-
...LAKE AND SUPPLEMENTAL COASTAL OBSERVATIONS...

STATION/POSITION TIME  TEMP    WIND        PRES    WAVE   SWELL
                       AIR SEA DIR/SP/G            HT/PER HT/PER/DIR
                 (UTC) (F)     (DEG/KT/KT) (MB)    (FT/S) (FT/S/D)
WINYAH BAY       0745   76        CALM     1020.0
LAKE MURRAY      0820   78     260/  3/  4 1019.0
ACE BASIN NERRS  0745   75        CALM     1020.0
FORT PULASKI     0842   77 87  330/  3/  4 1019.5F
SAPELO ISLAND    0800   77        CALM     1019.0

$$

ANZ835-935-AMZ111-154-330-350-352-354-370-450-454-472-221000-
...C-MAN AND BUOY OBSERVATIONS...

STATION/POSITION TIME  TEMP    WIND        PRES    WAVE   SWELL
                       AIR SEA DIR/SP/G            HT/PER HT/PER/DIR
                 (UTC) (F)     (DEG/KT/KT) (MB)    (FT/S) (FT/S/D)
BUOY 41004       0850   83 84  220/  6/  8 1018.7F   3/10   3/130/10
BUOY 41008       0850   83 85  230/  4/  6 1018.5F   2/ 8   2/110/ 8
FOLLY BEACH CMAN 0800   80     350/  5/  6 1019.9F
CAPERS NEARSHORE 0808   79 86  220/  6/  8 1019.2F
FRIPP NEARSHORE  0808   82     300/  6/  8 1018.9F


STATION/POSITION TIME  TEMP    WIND        PRES    WAVE   SWELL
                       AIR SEA DIR/SP/G            HT/PER HT/PER/DIR
                 (UTC) (F)     (DEG/KT/KT) (MB)    (FT/S) (FT/S/D)
5E ST. MARYS GA  0830      83                N/A     2/ 8
FRYING PAN BUOY  0850   83 84  200/  6/  6 1019.2F   2/ 8   2/130/ 8
BUOY 41025       0850   82 86  350/  4/  6 1020.0F   3/ 9   3/270/ 9
CAPE LOOKOUT NC  0800   81     240/  3/  3 1019.9F
BUOY 41002       0850   82 83  150/  4/  6 1019.9F   4/11   3/100/11
BUOY 41010       0850   84 85   80/ 14/ 16 1017.9F   6/10   5/120/10
ST AUGUSTINE FL  0900   82 82  130/  7/  8 1018.4F


$$




USA.gov is the U.S. government's official web portal to all federal, state and local government web resources and services.